Location: Gallinara
(44.0333°N, 8.2333°E)
Time: 02:36:34
(UTC+00:00)

Cosmos 1763 Rocket - Pass Details

Date: 25 September 2020
Orbit: 734 x 779 km, 74.0° (Epoch: 29 October)

Event Time Altitude Azimuth Distance (km) Brightness Sun altitude
Exits shadow 03:25:14 44° 254° (WSW) 1,067 3.7 -20.7°
Maximum altitude 03:26:22 52° 295° (WNW) 960 3.7 -20.5°
Drops below altitude 10° 03:31:33 10° 12° (NNE) 2,329 6.4 -19.6°
Sets 03:34:00 0° 17° (NNE) 3,255 7.3 -19.2°
